This demonstration page uses our WeatherBlox Daily Observations layout. Learn more.

Left ArrowRight Arrow

Hourly Observations for September 8, 2015

Temp ( °F °C ) Dew Point ( °F °C ) Humidity (%) Winds ( mph kmh ) Pressure ( in mb ) Visibility ( mi km ) Precip ( " mm )
12:51 am 00:51 Clear 75 23.9 58 14.4 55 55 W 3 6 29.81 1009 10 16.0934 0 0
1:51 am 01:51 Clear 75 23.9 58 14.4 55 55 N 7 11 29.81 1010 10 16.0934 0 0
2:51 am 02:51 Clear 75 23.9 59 15 58 58 Calm 29.81 1009 10 16.0934 0 0
3:51 am 03:51 Clear 74 23.3 60 15.6 62 62 Calm 29.81 1009 10 16.0934 0 0
4:51 am 04:51 Clear 74 23.3 60 15.6 62 62 NNW 3 6 29.81 1009 10 16.0934 0 0
5:51 am 05:51 Clear 74 23.3 61 16.1 64 64 Calm 29.83 1010 10 16.0934 0 0
6:51 am 06:51 Sunny 75 23.9 60 15.6 60 60 Calm 29.86 1011 10 16.0934 0 0
7:51 am 07:51 Sunny 78 25.6 59 15 52 52 Calm 29.87 1012 10 16.0934 0 0
8:51 am 08:51 Sunny 79 26.1 59 15 50 50 NW 5 7 29.88 1012 10 16.0934 0 0
9:51 am 09:51 Sunny 80 26.7 59 15 49 49 WNW 6 9 29.9 1013 10 16.0934 0 0
10:51 am 10:51 Sunny 83 28.3 58 14.4 43 43 NW 12 19 29.9 1012 10 16.0934 0 0
11:51 am 11:51 Sunny 85 29.4 57 13.9 39 39 NW 7 11 29.87 1012 10 16.0934 0 0
12:51 pm 12:51 Sunny 86 30 57 13.9 37 37 NW 8 13 29.84 1011 10 16.0934 0 0
1:51 pm 13:51 Sunny 87 30.6 59 15 39 39 W 9 15 29.81 1010 10 16.0934 0 0
2:51 pm 14:51 Sunny 88 31.1 54 12.2 31 31 W 8 13 29.78 1009 10 16.0934 0 0
3:51 pm 15:51 Sunny 90 32.2 52 11.1 27 27 WSW 7 11 29.76 1008 10 16.0934 0 0
4:51 pm 16:51 Sunny 89 31.7 52 11.1 28 28 SW 5 7 29.77 1008 10 16.0934 0 0
5:51 pm 17:51 Sunny 88 31.1 54 12.2 31 31 NNW 5 7 29.76 1008 10 16.0934 0 0
6:51 pm 18:51 Clear 84 28.9 53 11.7 34 34 NW 5 7 29.78 1008 10 16.0934 0 0
7:51 pm 19:51 Clear 80 26.7 56 13.3 44 44 WNW 5 7 29.79 1009 10 16.0934 0 0
8:51 pm 20:51 Clear 82 27.8 56 13.3 41 41 NNW 7 11 29.81 1010 10 16.0934 0 0
9:51 pm 21:51 Clear 83 28.3 57 13.9 41 41 NW 12 19 29.81 1010 10 16.0934 0 0
10:51 pm 22:51 Clear 78 25.6 59 15 52 52 NW 7 11 29.82 1010 10 16.0934 0 0
11:51 pm 23:51 Clear 79 26.1 56 13.3 45 45 NW 8 13 29.83 1010 10 16.0934 0 0

Powered by AerisWeather